Location: Arborea
(39.7744°N, 8.5819°E)
Time: 18:45:09
(UTC+00:00)

Okean-O - Pass Details

Date: 05 June 2022
Orbit: 638 x 640 km, 98.1° (Epoch: 27 June)

Event Time Altitude Azimuth Distance (km) Brightness Sun altitude
Rises 19:19:59 0° 176° (S) 2,927 5.6 -5.6°
Reaches altitude 10° 19:22:13 10° 181° (S) 2,023 4.9 -5.9°
Maximum altitude 19:26:33 56° 259° (W) 765 3.3 -6.6°
Drops below altitude 10° 19:30:54 10° 338° (NNW) 2,037 6.3 -7.3°
Sets 19:33:10 0° 343° (NNW) 2,950 7.1 -7.6°
